Time,TemperatureF,DewpointF,PressureIn,WindDirection,WindDirectionDegrees,WindSpeedMPH,WindSpeedGustMPH,Humidity,HourlyPrecipIn,Conditions,Clouds,dailyrainin,SoftwareType,DateUTC
2013-02-08 00:00:00,49.9,44.8,29.84,NNW,338,1.1,1.8,83,0.00,,,0.01,WUHU216HW,2013-02-08 06:00:00,
2013-02-08 00:05:00,49.7,44.6,29.83,NNW,338,0.0,1.8,83,0.00,,,0.00,WUHU216HW,2013-02-08 06:05:00,
2013-02-08 00:10:00,49.7,44.6,29.84,NNW,338,0.0,1.1,83,0.00,,,0.00,WUHU216HW,2013-02-08 06:10:00,
2013-02-08 00:15:00,49.7,44.6,29.83,NNW,338,0.0,0.0,83,0.00,,,0.00,WUHU216HW,2013-02-08 06:15:00,
2013-02-08 00:20:00,49.7,44.6,29.83,NNW,338,0.0,0.2,83,0.00,,,0.00,WUHU216HW,2013-02-08 06:20:00,
2013-02-08 00:25:00,49.7,44.6,29.84,South,180,1.1,1.1,83,0.00,,,0.00,WUHU216HW,2013-02-08 06:25:00,
2013-02-08 00:30:00,49.7,44.6,29.84,NNE,23,1.1,1.1,83,0.00,,,0.00,WUHU216HW,2013-02-08 06:30:00,
2013-02-08 00:35:00,49.9,44.8,29.83,ENE,68,0.0,1.1,83,0.00,,,0.00,WUHU216HW,2013-02-08 06:35:00,
2013-02-08 00:40:00,49.9,44.8,29.83,ENE,68,0.0,0.7,83,0.00,,,0.00,WUHU216HW,2013-02-08 06:40:00,
2013-02-08 00:45:00,49.9,44.8,29.83,ENE,68,0.0,0.7,83,0.00,,,0.00,WUHU216HW,2013-02-08 06:45:00,
2013-02-08 00:50:00,49.9,44.8,29.82,ENE,68,0.0,1.1,83,0.00,,,0.00,WUHU216HW,2013-02-08 06:50:00,
2013-02-08 00:55:00,49.7,44.6,29.82,ENE,68,0.0,1.1,83,0.00,,,0.00,WUHU216HW,2013-02-08 06:55:00,
2013-02-08 01:00:00,49.9,44.8,29.82,ENE,68,0.0,0.2,83,0.00,,,0.00,WUHU216HW,2013-02-08 07:00:00,
2013-02-08 01:05:00,49.9,44.8,29.82,ENE,68,0.2,0.7,83,0.00,,,0.00,WUHU216HW,2013-02-08 07:05:00,
2013-02-08 01:10:00,49.9,44.8,29.82,ENE,68,1.1,1.1,83,0.00,,,0.00,WUHU216HW,2013-02-08 07:10:00,
2013-02-08 01:15:00,49.9,44.6,29.81,ENE,68,0.0,1.1,82,0.00,,,0.00,WUHU216HW,2013-02-08 07:15:00,
2013-02-08 01:20:00,49.7,44.4,29.81,ENE,68,0.0,0.9,82,0.00,,,0.00,WUHU216HW,2013-02-08 07:20:00,
2013-02-08 01:25:00,49.7,44.6,29.80,ENE,68,0.0,0.0,83,0.00,,,0.00,WUHU216HW,2013-02-08 07:25:00,
2013-02-08 01:30:00,49.5,44.5,29.80,ENE,68,1.1,1.1,83,0.00,,,0.00,WUHU216HW,2013-02-08 07:30:00,
2013-02-08 01:35:00,49.3,44.3,29.79,ENE,68,0.4,1.1,83,0.00,,,0.00,WUHU216HW,2013-02-08 07:35:00,
2013-02-08 01:40:00,49.3,44.3,29.78,ENE,68,0.0,0.4,83,0.00,,,0.00,WUHU216HW,2013-02-08 07:40:00,
2013-02-08 01:45:00,49.1,44.1,29.78,SW,225,0.0,2.9,83,0.00,,,0.00,WUHU216HW,2013-02-08 07:45:00,
2013-02-08 01:50:00,49.1,44.1,29.78,SSW,203,0.7,2.9,83,0.00,,,0.00,WUHU216HW,2013-02-08 07:50:00,
2013-02-08 01:55:00,49.0,44.0,29.78,SSE,158,0.0,0.7,83,0.00,,,0.00,WUHU216HW,2013-02-08 07:55:00,
2013-02-08 02:00:00,48.8,43.8,29.79,NE,45,0.0,1.1,83,0.00,,,0.00,WUHU216HW,2013-02-08 08:00:00,
2013-02-08 02:05:00,48.6,43.7,29.78,NE,45,0.2,1.1,83,0.00,,,0.00,WUHU216HW,2013-02-08 08:05:00,
2013-02-08 02:10:00,48.6,43.9,29.79,ENE,68,1.1,1.1,84,0.00,,,0.00,WUHU216HW,2013-02-08 08:10:00,
2013-02-08 02:15:00,48.6,43.7,29.79,ENE,68,1.8,1.8,83,0.00,,,0.00,WUHU216HW,2013-02-08 08:15:00,
2013-02-08 02:20:00,48.4,43.7,29.79,SSW,203,0.2,1.8,84,0.00,,,0.00,WUHU216HW,2013-02-08 08:20:00,
2013-02-08 02:25:00,48.4,43.5,29.79,ENE,68,0.0,1.1,83,0.00,,,0.00,WUHU216HW,2013-02-08 08:25:00,
2013-02-08 02:30:00,48.4,43.5,29.79,South,180,0.4,0.9,83,0.00,,,0.00,WUHU216HW,2013-02-08 08:30:00,
2013-02-08 02:35:00,48.4,43.5,29.79,ENE,68,0.0,0.9,83,0.00,,,0.00,WUHU216HW,2013-02-08 08:35:00,
2013-02-08 02:40:00,48.4,43.5,29.79,ENE,68,0.4,0.9,83,0.00,,,0.00,WUHU216HW,2013-02-08 08:40:00,
2013-02-08 02:45:00,48.4,43.5,29.80,SSW,203,0.0,1.6,83,0.00,,,0.00,WUHU216HW,2013-02-08 08:45:00,
2013-02-08 02:50:00,48.4,43.5,29.79,SSE,158,0.4,1.6,83,0.00,,,0.00,WUHU216HW,2013-02-08 08:50:00,
2013-02-08 02:55:00,48.2,43.3,29.79,SSE,158,0.4,0.9,83,0.00,,,0.00,WUHU216HW,2013-02-08 08:55:00,
2013-02-08 03:00:00,48.1,43.1,29.79,SSE,158,0.0,0.9,83,0.00,,,0.00,WUHU216HW,2013-02-08 09:00:00,
2013-02-08 03:05:00,48.1,43.1,29.79,NE,45,0.0,0.7,83,0.00,,,0.00,WUHU216HW,2013-02-08 09:05:00,
2013-02-08 03:10:00,47.9,42.9,29.79,NE,45,1.1,1.3,83,0.00,,,0.00,WUHU216HW,2013-02-08 09:10:00,
2013-02-08 03:15:00,47.7,42.8,29.79,NE,45,0.2,1.3,83,0.00,,,0.00,WUHU216HW,2013-02-08 09:15:00,
2013-02-08 03:20:00,47.7,42.8,29.80,NE,45,0.0,0.7,83,0.00,,,0.00,WUHU216HW,2013-02-08 09:20:00,
2013-02-08 03:25:00,47.9,42.9,29.80,NE,45,0.0,0.0,83,0.00,,,0.00,WUHU216HW,2013-02-08 09:25:00,
2013-02-08 03:30:00,47.9,42.9,29.80,NNE,23,0.2,0.4,83,0.00,,,0.00,WUHU216HW,2013-02-08 09:30:00,
2013-02-08 03:35:00,47.9,42.9,29.80,SSW,203,0.7,1.8,83,0.00,,,0.00,WUHU216HW,2013-02-08 09:35:00,
2013-02-08 03:40:00,48.1,43.1,29.81,NW,315,1.1,1.8,83,0.00,,,0.00,WUHU216HW,2013-02-08 09:40:00,
2013-02-08 03:45:00,48.1,43.1,29.81,WNW,293,0.4,1.6,83,0.00,,,0.00,WUHU216HW,2013-02-08 09:45:00,
2013-02-08 03:50:00,48.1,43.5,29.82,SSW,203,2.9,2.9,84,0.00,,,0.00,WUHU216HW,2013-02-08 09:50:00,
2013-02-08 03:55:00,48.1,43.5,29.82,SW,225,0.7,2.9,84,0.00,,,0.00,WUHU216HW,2013-02-08 09:55:00,
2013-02-08 04:00:00,48.1,43.5,29.82,SW,225,0.7,0.7,84,0.00,,,0.00,WUHU216HW,2013-02-08 10:00:00,
2013-02-08 04:05:00,48.2,43.6,29.82,South,180,0.7,2.2,84,0.00,,,0.00,WUHU216HW,2013-02-08 10:05:00,
2013-02-08 04:10:00,48.2,43.6,29.82,SW,225,0.0,2.2,84,0.00,,,0.00,WUHU216HW,2013-02-08 10:10:00,
2013-02-08 04:15:00,48.2,43.6,29.82,WSW,248,0.0,2.0,84,0.00,,,0.00,WUHU216HW,2013-02-08 10:15:00,
2013-02-08 04:20:00,48.2,43.6,29.82,SSW,203,0.7,1.3,84,0.00,,,0.00,WUHU216HW,2013-02-08 10:20:00,
2013-02-08 04:25:00,48.2,43.6,29.82,SW,225,0.4,1.3,84,0.00,,,0.00,WUHU216HW,2013-02-08 10:25:00,
2013-02-08 04:30:00,48.4,43.7,29.82,East,90,0.0,1.1,84,0.00,,,0.00,WUHU216HW,2013-02-08 10:30:00,
2013-02-08 04:35:00,48.4,43.7,29.82,SW,225,1.3,1.3,84,0.00,,,0.00,WUHU216HW,2013-02-08 10:35:00,
2013-02-08 04:40:00,48.4,43.7,29.82,SSE,158,0.0,2.2,84,0.00,,,0.00,WUHU216HW,2013-02-08 10:40:00,
2013-02-08 04:45:00,48.4,43.7,29.82,SSW,203,0.0,2.2,84,0.00,,,0.00,WUHU216HW,2013-02-08 10:45:00,
2013-02-08 04:50:00,48.4,43.7,29.82,WSW,248,0.0,1.3,84,0.00,,,0.00,WUHU216HW,2013-02-08 10:50:00,
2013-02-08 04:55:00,48.6,43.9,29.82,SE,135,0.0,0.4,84,0.00,,,0.00,WUHU216HW,2013-02-08 10:55:00,
2013-02-08 05:00:00,48.4,43.7,29.82,SE,135,0.0,0.4,84,0.00,,,0.00,WUHU216HW,2013-02-08 11:00:00,
2013-02-08 05:05:00,48.4,44.1,29.86,NNW,338,3.8,3.8,85,0.00,,,0.00,WUHU216HW,2013-02-08 11:05:00,
2013-02-08 05:10:00,48.4,43.7,29.86,North,0,0.0,4.0,84,0.03,,,0.02,WUHU216HW,2013-02-08 11:10:00,
2013-02-08 05:15:00,48.4,44.1,29.86,SW,225,0.7,4.0,85,0.06,,,0.05,WUHU216HW,2013-02-08 11:15:00,
2013-02-08 05:20:00,48.4,44.1,29.84,SW,225,0.7,2.5,85,0.08,,,0.09,WUHU216HW,2013-02-08 11:20:00,
2013-02-08 05:25:00,48.4,44.1,29.84,WSW,248,0.4,2.5,85,0.09,,,0.09,WUHU216HW,2013-02-08 11:25:00,
2013-02-08 05:30:00,48.2,43.9,29.84,WSW,248,1.1,1.6,85,0.09,,,0.09,WUHU216HW,2013-02-08 11:30:00,
2013-02-08 05:35:00,48.4,44.1,29.83,SSE,158,0.0,1.6,85,0.11,,,0.11,WUHU216HW,2013-02-08 11:35:00,
2013-02-08 05:40:00,48.4,44.1,29.84,South,180,0.0,0.4,85,0.12,,,0.13,WUHU216HW,2013-02-08 11:40:00,
2013-02-08 05:45:00,48.2,43.9,29.84,South,180,0.0,0.0,85,0.12,,,0.13,WUHU216HW,2013-02-08 11:45:00,
2013-02-08 05:50:00,48.4,44.1,29.84,South,180,0.0,0.0,85,0.12,,,0.13,WUHU216HW,2013-02-08 11:50:00,
2013-02-08 05:55:00,48.4,44.1,29.85,South,180,0.0,0.0,85,0.12,,,0.13,WUHU216HW,2013-02-08 11:55:00,
2013-02-08 06:00:00,48.4,44.1,29.85,SSW,203,0.0,0.0,85,0.13,,,0.13,WUHU216HW,2013-02-08 12:00:00,
2013-02-08 06:05:00,48.6,44.3,29.85,SSW,203,0.0,0.0,85,0.11,,,0.13,WUHU216HW,2013-02-08 12:05:00,
2013-02-08 06:10:00,48.6,44.3,29.85,SSW,203,0.0,0.0,85,0.10,,,0.15,WUHU216HW,2013-02-08 12:10:00,
2013-02-08 06:15:00,48.6,44.3,29.85,SSW,203,0.4,0.4,85,0.09,,,0.16,WUHU216HW,2013-02-08 12:15:00,
2013-02-08 06:20:00,48.6,44.3,29.85,SSW,203,0.0,0.4,85,0.09,,,0.18,WUHU216HW,2013-02-08 12:20:00,
2013-02-08 06:25:00,48.4,44.1,29.85,SSW,203,0.0,0.0,85,0.10,,,0.20,WUHU216HW,2013-02-08 12:25:00,
2013-02-08 06:30:00,48.4,44.1,29.85,SSW,203,0.0,0.0,85,0.11,,,0.22,WUHU216HW,2013-02-08 12:30:00,
2013-02-08 06:35:00,48.4,44.1,29.85,SSW,203,0.2,0.2,85,0.11,,,0.23,WUHU216HW,2013-02-08 12:35:00,
2013-02-08 06:40:00,48.4,44.4,29.85,WSW,248,0.0,0.4,86,0.10,,,0.23,WUHU216HW,2013-02-08 12:40:00,
2013-02-08 06:45:00,48.4,44.4,29.85,WSW,248,0.0,0.4,86,0.10,,,0.23,WUHU216HW,2013-02-08 12:45:00,
2013-02-08 06:50:00,48.6,44.6,29.85,SSE,158,0.0,0.4,86,0.10,,,0.23,WUHU216HW,2013-02-08 12:50:00,
2013-02-08 06:55:00,48.4,44.4,29.85,SSE,158,0.0,0.4,86,0.10,,,0.23,WUHU216HW,2013-02-08 12:55:00,
2013-02-08 07:00:00,48.2,44.3,29.85,SSE,158,0.0,0.7,86,0.09,,,0.23,WUHU216HW,2013-02-08 13:00:00,
2013-02-08 07:05:00,48.2,44.3,29.85,SSE,158,0.0,0.7,86,0.09,,,0.24,WUHU216HW,2013-02-08 13:05:00,
2013-02-08 07:06:00,48.2,44.3,29.85,SSE,158,0.0,0.0,86,0.09,,,0.24,WUHU216HW,2013-02-08 13:06:00,
2013-02-08 07:10:00,48.2,44.3,29.85,SSE,158,0.0,0.0,86,0.09,,,0.24,WUHU216HW,2013-02-08 13:10:00,
2013-02-08 07:15:00,48.2,44.3,29.85,SSE,158,0.0,0.0,86,0.09,,,0.24,WUHU216HW,2013-02-08 13:15:00,
2013-02-08 07:36:00,48.6,44.6,29.88,NNW,338,0.0,0.0,86,0.02,,,0.24,WUHU216HW,2013-02-08 13:36:00,
2013-02-08 07:41:00,48.6,44.6,29.88,North,0,0.4,1.1,86,0.02,,,0.25,WUHU216HW,2013-02-08 13:41:00,
2013-02-08 07:46:00,48.8,44.7,29.88,North,0,0.0,1.1,86,0.02,,,0.25,WUHU216HW,2013-02-08 13:46:00,
2013-02-08 07:51:00,48.6,44.6,29.88,North,0,0.0,0.0,86,0.02,,,0.25,WUHU216HW,2013-02-08 13:51:00,
2013-02-08 07:56:00,48.6,44.6,29.89,North,0,0.4,0.4,86,0.03,,,0.26,WUHU216HW,2013-02-08 13:56:00,
2013-02-08 08:01:00,48.6,44.6,29.90,WNW,293,1.1,1.1,86,0.02,,,0.26,WUHU216HW,2013-02-08 14:01:00,
2013-02-08 08:06:00,48.8,44.7,29.90,WNW,293,1.3,1.3,86,0.02,,,0.26,WUHU216HW,2013-02-08 14:06:00,
2013-02-08 08:11:00,48.8,44.7,29.90,NW,315,0.0,1.3,86,0.02,,,0.26,WUHU216HW,2013-02-08 14:11:00,
2013-02-08 08:16:00,49.0,44.9,29.90,NW,315,0.4,0.9,86,0.02,,,0.26,WUHU216HW,2013-02-08 14:16:00,
2013-02-08 08:21:00,49.0,44.9,29.90,NW,315,0.4,0.7,86,0.02,,,0.26,WUHU216HW,2013-02-08 14:21:00,
2013-02-08 08:26:00,49.0,44.9,29.90,North,0,0.0,0.7,86,0.02,,,0.26,WUHU216HW,2013-02-08 14:26:00,
2013-02-08 08:31:00,49.0,44.9,29.90,NNW,338,2.0,2.0,86,0.01,,,0.26,WUHU216HW,2013-02-08 14:31:00,
2013-02-08 08:36:00,49.0,44.9,29.90,NW,315,2.0,2.0,86,0.01,,,0.26,WUHU216HW,2013-02-08 14:36:00,
2013-02-08 09:00:00,49.1,45.1,29.92,SW,225,0.0,0.0,86,0.01,,,0.26,WUHU216HW,2013-02-08 15:00:00,
2013-02-08 09:05:00,49.1,45.1,29.92,WNW,293,0.9,1.1,86,0.01,,,0.27,WUHU216HW,2013-02-08 15:05:00,
2013-02-08 09:10:00,49.1,45.4,29.92,NNE,23,0.0,1.1,87,0.01,,,0.27,WUHU216HW,2013-02-08 15:10:00,
2013-02-08 09:15:00,49.3,45.3,29.92,South,180,0.2,1.1,86,0.01,,,0.27,WUHU216HW,2013-02-08 15:15:00,
2013-02-08 09:20:00,49.3,45.5,29.93,NNE,23,0.0,0.4,87,0.01,,,0.27,WUHU216HW,2013-02-08 15:20:00,
2013-02-08 09:25:00,49.3,45.5,29.93,NE,45,0.4,1.8,87,0.01,,,0.27,WUHU216HW,2013-02-08 15:25:00,
2013-02-08 09:30:00,49.3,45.3,29.93,NE,45,0.0,1.8,86,0.01,,,0.27,WUHU216HW,2013-02-08 15:30:00,
2013-02-08 09:35:00,49.3,45.5,29.94,NE,45,1.1,2.0,87,0.00,,,0.27,WUHU216HW,2013-02-08 15:35:00,
2013-02-08 09:40:00,49.3,45.5,29.94,NNW,338,2.7,2.7,87,0.00,,,0.27,WUHU216HW,2013-02-08 15:40:00,
2013-02-08 09:45:00,49.3,45.3,29.95,WNW,293,1.1,2.9,86,0.01,,,0.28,WUHU216HW,2013-02-08 15:45:00,
2013-02-08 09:50:00,49.1,45.1,29.95,SSE,158,0.4,2.9,86,0.01,,,0.28,WUHU216HW,2013-02-08 15:50:00,
2013-02-08 09:55:00,49.0,44.9,29.95,NW,315,1.1,1.8,86,0.01,,,0.28,WUHU216HW,2013-02-08 15:55:00,
2013-02-08 10:00:00,49.0,44.7,29.95,WNW,293,0.4,3.6,85,0.01,,,0.28,WUHU216HW,2013-02-08 16:00:00,
2013-02-08 10:05:00,49.0,44.7,29.95,SW,225,2.0,3.6,85,0.01,,,0.28,WUHU216HW,2013-02-08 16:05:00,
2013-02-08 10:10:00,49.0,44.7,29.95,South,180,1.1,2.7,85,0.01,,,0.28,WUHU216HW,2013-02-08 16:10:00,
2013-02-08 10:15:00,49.1,44.8,29.95,NNW,338,3.4,3.4,85,0.01,,,0.28,WUHU216HW,2013-02-08 16:15:00,
2013-02-08 10:20:00,49.0,44.7,29.96,WNW,293,2.5,3.4,85,0.01,,,0.28,WUHU216HW,2013-02-08 16:20:00,
2013-02-08 10:25:00,49.1,44.8,29.96,NW,315,2.0,2.5,85,0.01,,,0.28,WUHU216HW,2013-02-08 16:25:00,
2013-02-08 10:30:00,49.0,44.7,29.96,NNW,338,0.7,2.5,85,0.01,,,0.28,WUHU216HW,2013-02-08 16:30:00,
2013-02-08 10:35:00,49.1,44.8,29.96,West,270,0.7,3.6,85,0.01,,,0.28,WUHU216HW,2013-02-08 16:35:00,
2013-02-08 10:40:00,49.1,44.8,29.97,WNW,293,1.1,3.6,85,0.01,,,0.28,WUHU216HW,2013-02-08 16:40:00,
2013-02-08 10:45:00,49.0,44.7,29.97,NNE,23,1.1,2.2,85,0.00,,,0.28,WUHU216HW,2013-02-08 16:45:00,
2013-02-08 10:50:00,49.0,44.7,29.97,NW,315,1.1,2.9,85,0.00,,,0.28,WUHU216HW,2013-02-08 16:50:00,
2013-02-08 10:55:00,48.6,43.9,29.98,WNW,293,0.7,2.9,84,0.00,,,0.28,WUHU216HW,2013-02-08 16:55:00,
2013-02-08 11:00:00,48.4,43.7,29.98,NE,45,1.1,2.2,84,0.00,,,0.28,WUHU216HW,2013-02-08 17:00:00,
2013-02-08 11:05:00,48.2,43.6,29.98,NW,315,2.7,2.7,84,0.00,,,0.28,WUHU216HW,2013-02-08 17:05:00,
2013-02-08 11:10:00,48.2,43.6,29.98,NE,45,3.4,5.1,84,0.00,,,0.28,WUHU216HW,2013-02-08 17:10:00,
2013-02-08 11:15:00,48.2,43.6,29.98,NNW,338,2.0,5.1,84,0.00,,,0.28,WUHU216HW,2013-02-08 17:15:00,
2013-02-08 11:20:00,48.2,43.3,29.98,WNW,293,3.4,3.4,83,0.00,,,0.28,WUHU216HW,2013-02-08 17:20:00,
2013-02-08 11:25:00,48.1,43.1,29.98,NNW,338,3.8,3.8,83,0.00,,,0.28,WUHU216HW,2013-02-08 17:25:00,
2013-02-08 11:30:00,48.1,43.1,29.98,WNW,293,6.5,6.5,83,0.00,,,0.28,WUHU216HW,2013-02-08 17:30:00,
2013-02-08 11:35:00,47.9,42.7,29.98,North,0,1.6,6.5,82,0.00,,,0.28,WUHU216HW,2013-02-08 17:35:00,
2013-02-08 11:40:00,47.9,42.7,29.98,NNW,338,1.8,3.8,82,0.00,,,0.28,WUHU216HW,2013-02-08 17:40:00,
2013-02-08 11:45:00,48.1,42.8,29.99,NNE,23,2.0,3.8,82,0.00,,,0.28,WUHU216HW,2013-02-08 17:45:00,
2013-02-08 11:50:00,48.2,42.7,29.99,WSW,248,1.1,3.1,81,0.00,,,0.28,WUHU216HW,2013-02-08 17:50:00,
2013-02-08 11:55:00,48.6,43.3,29.99,SW,225,1.8,3.1,82,0.00,,,0.28,WUHU216HW,2013-02-08 17:55:00,
2013-02-08 12:00:00,48.8,43.5,29.99,NNW,338,1.1,3.8,82,0.00,,,0.28,WUHU216HW,2013-02-08 18:00:00,
2013-02-08 12:05:00,48.8,43.2,29.99,North,0,0.0,3.8,81,0.00,,,0.28,WUHU216HW,2013-02-08 18:05:00,
2013-02-08 12:10:00,48.6,43.0,29.99,NNW,338,0.7,4.0,81,0.00,,,0.28,WUHU216HW,2013-02-08 18:10:00,
2013-02-08 12:15:00,48.6,43.0,30.00,WSW,248,2.2,4.0,81,0.00,,,0.28,WUHU216HW,2013-02-08 18:15:00,
2013-02-08 12:20:00,48.6,43.0,30.00,NNE,23,0.9,3.6,81,0.00,,,0.28,WUHU216HW,2013-02-08 18:20:00,
2013-02-08 12:25:00,48.6,43.0,30.00,NW,315,2.2,3.6,81,0.00,,,0.28,WUHU216HW,2013-02-08 18:25:00,
2013-02-08 12:31:00,48.6,42.7,30.00,NNW,338,1.3,2.5,80,0.00,,,0.28,WUHU216HW,2013-02-08 18:31:00,
2013-02-08 12:36:00,48.4,42.5,30.01,SW,225,1.1,4.0,80,0.00,,,0.28,WUHU216HW,2013-02-08 18:36:00,
2013-02-08 12:41:00,48.2,42.3,30.01,North,0,2.2,4.0,80,0.00,,,0.28,WUHU216HW,2013-02-08 18:41:00,
2013-02-08 12:46:00,47.9,41.7,30.01,NE,45,2.2,3.4,79,0.00,,,0.28,WUHU216HW,2013-02-08 18:46:00,
2013-02-08 12:51:00,47.7,41.1,30.01,NNW,338,1.8,4.0,78,0.00,,,0.28,WUHU216HW,2013-02-08 18:51:00,
2013-02-08 12:56:00,47.5,41.0,30.01,SW,225,1.1,4.0,78,0.00,,,0.28,WUHU216HW,2013-02-08 18:56:00,
2013-02-08 13:01:00,47.3,40.8,30.01,NNE,23,1.8,2.7,78,0.00,,,0.28,WUHU216HW,2013-02-08 19:01:00,
2013-02-08 13:06:00,47.3,40.8,30.01,NNE,23,0.0,3.4,78,0.00,,,0.28,WUHU216HW,2013-02-08 19:06:00,
2013-02-08 13:11:00,47.3,40.8,30.01,NNW,338,1.1,3.4,78,0.00,,,0.28,WUHU216HW,2013-02-08 19:11:00,
2013-02-08 13:16:00,47.3,40.8,30.01,ENE,68,1.8,4.0,78,0.00,,,0.28,WUHU216HW,2013-02-08 19:16:00,
2013-02-08 13:21:00,47.3,40.5,30.02,North,0,0.4,4.0,77,0.00,,,0.28,WUHU216HW,2013-02-08 19:21:00,
2013-02-08 13:26:00,47.3,40.5,30.02,SSW,203,0.2,1.8,77,0.00,,,0.28,WUHU216HW,2013-02-08 19:26:00,
2013-02-08 13:31:00,47.7,40.2,30.01,NE,45,1.8,3.1,75,0.00,,,0.28,WUHU216HW,2013-02-08 19:31:00,
2013-02-08 13:36:00,47.5,40.0,30.01,North,0,4.5,4.5,75,0.00,,,0.28,WUHU216HW,2013-02-08 19:36:00,
2013-02-08 13:37:00,47.5,40.3,30.01,ESE,113,0.9,0.9,76,0.00,,,0.28,WUHU216HW,2013-02-08 19:37:00,
2013-02-08 13:41:00,47.5,40.3,30.01,ESE,113,0.9,4.9,76,0.00,,,0.28,WUHU216HW,2013-02-08 19:41:00,
2013-02-08 13:46:00,47.5,40.3,30.01,ESE,113,0.9,4.9,76,0.00,,,0.28,WUHU216HW,2013-02-08 19:46:00,
2013-02-08 14:00:00,47.9,40.2,30.02,SSW,203,1.8,1.8,75,0.00,,,0.28,WUHU216HW,2013-02-08 20:00:00,
2013-02-08 14:05:00,47.9,40.0,30.02,SE,135,1.8,1.8,74,0.00,,,0.28,WUHU216HW,2013-02-08 20:05:00,
2013-02-08 14:10:00,48.1,40.1,30.03,NW,315,0.7,1.8,74,0.00,,,0.28,WUHU216HW,2013-02-08 20:10:00,
2013-02-08 14:15:00,47.9,39.6,30.03,NNW,338,3.6,3.6,73,0.00,,,0.28,WUHU216HW,2013-02-08 20:15:00,
2013-02-08 14:20:00,48.1,40.1,30.03,SSW,203,1.3,3.6,74,0.00,,,0.28,WUHU216HW,2013-02-08 20:20:00,
2013-02-08 14:25:00,48.1,39.8,30.03,SSW,203,1.1,4.3,73,0.00,,,0.28,WUHU216HW,2013-02-08 20:25:00,
2013-02-08 14:30:00,48.1,39.8,30.03,NE,45,0.7,4.3,73,0.00,,,0.28,WUHU216HW,2013-02-08 20:30:00,
2013-02-08 14:35:00,48.1,39.8,30.03,NW,315,5.4,5.4,73,0.00,,,0.28,WUHU216HW,2013-02-08 20:35:00,
2013-02-08 14:40:00,48.1,39.4,30.03,NNE,23,2.2,5.4,72,0.00,,,0.28,WUHU216HW,2013-02-08 20:40:00,
2013-02-08 14:45:00,47.9,39.2,30.04,West,270,1.1,5.4,72,0.00,,,0.28,WUHU216HW,2013-02-08 20:45:00,
2013-02-08 14:50:00,47.9,39.2,30.03,SW,225,1.3,3.4,72,0.00,,,0.28,WUHU216HW,2013-02-08 20:50:00,
2013-02-08 14:55:00,47.7,39.1,30.04,NNW,338,2.5,3.8,72,0.00,,,0.28,WUHU216HW,2013-02-08 20:55:00,
2013-02-08 15:00:00,47.5,38.3,30.04,SE,135,3.1,5.6,70,0.00,,,0.28,WUHU216HW,2013-02-08 21:00:00,
2013-02-08 15:05:00,47.3,38.4,30.03,NNW,338,1.8,5.6,71,0.00,,,0.28,WUHU216HW,2013-02-08 21:05:00,
2013-02-08 15:10:00,47.5,38.6,30.04,NE,45,1.6,6.7,71,0.00,,,0.28,WUHU216HW,2013-02-08 21:10:00,
2013-02-08 15:15:00,47.7,38.4,30.04,North,0,2.5,6.7,70,0.00,,,0.28,WUHU216HW,2013-02-08 21:15:00,
2013-02-08 15:20:00,47.5,38.3,30.04,ENE,68,2.9,3.8,70,0.00,,,0.28,WUHU216HW,2013-02-08 21:20:00,
2013-02-08 15:25:00,47.2,37.9,30.04,South,180,0.4,6.5,70,0.00,,,0.28,WUHU216HW,2013-02-08 21:25:00,
2013-02-08 15:30:00,46.4,36.9,30.04,South,180,2.5,6.5,69,0.00,,,0.28,WUHU216HW,2013-02-08 21:30:00,
2013-02-08 15:35:00,46.4,37.3,30.04,NW,315,2.5,6.3,70,0.00,,,0.28,WUHU216HW,2013-02-08 21:35:00,
2013-02-08 15:40:00,46.6,37.8,30.04,NE,45,1.6,4.0,71,0.00,,,0.28,WUHU216HW,2013-02-08 21:40:00,
2013-02-08 15:45:00,46.6,37.8,30.04,WSW,248,2.9,4.0,71,0.00,,,0.28,WUHU216HW,2013-02-08 21:45:00,
2013-02-08 15:50:00,46.4,37.3,30.05,SSW,203,1.1,4.3,70,0.00,,,0.28,WUHU216HW,2013-02-08 21:50:00,
2013-02-08 15:55:00,46.4,37.3,30.05,NW,315,0.7,5.8,70,0.00,,,0.28,WUHU216HW,2013-02-08 21:55:00,
2013-02-08 16:00:00,46.4,37.6,30.04,West,270,2.0,5.8,71,0.00,,,0.28,WUHU216HW,2013-02-08 22:00:00,
2013-02-08 16:05:00,46.6,37.8,30.05,NW,315,0.7,3.1,71,0.00,,,0.28,WUHU216HW,2013-02-08 22:05:00,
2013-02-08 16:10:00,46.4,37.6,30.05,South,180,0.4,2.5,71,0.00,,,0.28,WUHU216HW,2013-02-08 22:10:00,
2013-02-08 16:15:00,46.3,37.1,30.05,SSW,203,1.8,2.2,70,0.00,,,0.28,WUHU216HW,2013-02-08 22:15:00,
2013-02-08 16:20:00,46.1,36.9,30.05,WSW,248,4.0,4.0,70,0.00,,,0.28,WUHU216HW,2013-02-08 22:20:00,
2013-02-08 16:25:00,45.7,36.5,30.05,North,0,1.8,4.7,70,0.00,,,0.28,WUHU216HW,2013-02-08 22:25:00,
2013-02-08 16:30:00,45.4,36.2,30.06,NNW,338,1.3,4.7,70,0.00,,,0.28,WUHU216HW,2013-02-08 22:30:00,
2013-02-08 16:35:00,45.2,36.4,30.06,NNE,23,0.7,2.9,71,0.00,,,0.28,WUHU216HW,2013-02-08 22:35:00,
2013-02-08 16:40:00,45.4,36.9,30.06,WNW,293,2.5,2.7,72,0.00,,,0.28,WUHU216HW,2013-02-08 22:40:00,
2013-02-08 16:45:00,45.4,36.6,30.06,NNW,338,1.8,2.7,71,0.00,,,0.28,WUHU216HW,2013-02-08 22:45:00,
2013-02-08 16:50:00,45.4,36.6,30.06,North,0,0.4,2.5,71,0.00,,,0.28,WUHU216HW,2013-02-08 22:50:00,
2013-02-08 16:55:00,45.2,36.4,30.07,NNW,338,1.3,2.5,71,0.00,,,0.28,WUHU216HW,2013-02-08 22:55:00,
2013-02-08 17:00:00,44.6,35.8,30.07,NNW,338,2.9,3.4,71,0.00,,,0.28,WUHU216HW,2013-02-08 23:00:00,
2013-02-08 17:05:00,44.3,35.5,30.07,NNE,23,0.2,3.4,71,0.00,,,0.28,WUHU216HW,2013-02-08 23:05:00,
2013-02-08 17:10:00,43.7,35.0,30.07,North,0,1.1,2.5,71,0.00,,,0.28,WUHU216HW,2013-02-08 23:10:00,
2013-02-08 17:15:00,43.4,34.7,30.07,South,180,1.3,1.3,71,0.00,,,0.28,WUHU216HW,2013-02-08 23:15:00,
2013-02-08 17:20:00,43.2,34.5,30.07,NE,45,1.8,2.5,71,0.00,,,0.00,WUHU216HW,2013-02-08 23:20:00,
2013-02-08 17:25:00,43.0,34.3,30.07,North,0,0.4,2.5,71,0.00,,,0.00,WUHU216HW,2013-02-08 23:25:00,
2013-02-08 17:30:00,42.8,34.2,30.07,NNE,23,0.0,1.8,71,0.00,,,0.28,WUHU216HW,2013-02-08 23:30:00,
2013-02-08 17:35:00,42.8,34.5,30.07,NW,315,0.4,0.7,72,0.00,,,0.00,WUHU216HW,2013-02-08 23:35:00,
2013-02-08 17:40:00,42.7,34.0,30.08,ENE,68,0.0,0.7,71,0.00,,,0.00,WUHU216HW,2013-02-08 23:40:00,
2013-02-08 17:45:00,42.5,34.1,30.08,ENE,68,0.0,0.7,72,0.00,,,0.00,WUHU216HW,2013-02-08 23:45:00,
2013-02-08 17:50:00,42.1,33.8,30.08,ENE,68,0.0,0.7,72,0.00,,,0.28,WUHU216HW,2013-02-08 23:50:00,
2013-02-08 17:55:00,42.1,33.8,30.08,ENE,68,0.0,0.4,72,0.00,,,0.28,WUHU216HW,2013-02-08 23:55:00,
2013-02-08 18:00:00,41.9,33.9,30.08,WNW,293,1.1,1.8,73,0.00,,,0.28,WUHU216HW,2013-02-09 00:00:00,
2013-02-08 18:05:00,41.8,33.8,30.08,NW,315,1.1,1.8,73,0.00,,,0.00,WUHU216HW,2013-02-09 00:05:00,
2013-02-08 18:10:00,41.8,33.8,30.09,West,270,1.1,1.1,73,0.00,,,0.28,WUHU216HW,2013-02-09 00:10:00,
2013-02-08 18:15:00,41.8,33.8,30.08,NW,315,0.2,1.1,73,0.00,,,0.00,WUHU216HW,2013-02-09 00:15:00,
2013-02-08 18:20:00,41.8,33.8,30.09,NW,315,0.0,1.6,73,0.00,,,0.28,WUHU216HW,2013-02-09 00:20:00,
2013-02-08 18:25:00,41.8,33.8,30.09,NNW,338,0.4,3.4,73,0.00,,,0.28,WUHU216HW,2013-02-09 00:25:00,
2013-02-08 18:30:00,41.8,33.8,30.09,West,270,0.0,3.4,73,0.00,,,0.28,WUHU216HW,2013-02-09 00:30:00,
2013-02-08 18:35:00,41.8,33.8,30.09,SSW,203,0.0,1.8,73,0.00,,,0.28,WUHU216HW,2013-02-09 00:35:00,
2013-02-08 18:40:00,41.6,33.2,30.09,SSW,203,0.0,1.8,72,0.00,,,0.28,WUHU216HW,2013-02-09 00:40:00,
2013-02-08 18:45:00,41.6,33.2,30.09,NNE,23,0.0,1.8,72,0.00,,,0.00,WUHU216HW,2013-02-09 00:45:00,
2013-02-08 18:50:00,41.4,33.4,30.10,WNW,293,0.7,1.1,73,0.00,,,0.00,WUHU216HW,2013-02-09 00:50:00,
2013-02-08 18:55:00,41.4,33.4,30.11,North,0,1.1,1.1,73,0.00,,,0.00,WUHU216HW,2013-02-09 00:55:00,
2013-02-08 19:00:00,41.2,33.2,30.12,NNE,23,0.2,1.1,73,0.00,,,0.00,WUHU216HW,2013-02-09 01:00:00,
2013-02-08 19:05:00,41.0,33.0,30.12,ENE,68,0.0,1.8,73,0.00,,,0.00,WUHU216HW,2013-02-09 01:05:00,
2013-02-08 19:10:00,41.0,33.0,30.13,ENE,68,0.4,1.8,73,0.00,,,0.28,WUHU216HW,2013-02-09 01:10:00,
2013-02-08 19:15:00,41.0,33.3,30.13,ENE,68,0.0,0.7,74,0.00,,,0.28,WUHU216HW,2013-02-09 01:15:00,
2013-02-08 19:20:00,41.0,33.3,30.11,ENE,68,0.7,1.8,74,0.00,,,0.28,WUHU216HW,2013-02-09 01:20:00,
2013-02-08 19:25:00,41.0,33.3,30.11,NW,315,0.0,1.8,74,0.00,,,0.28,WUHU216HW,2013-02-09 01:25:00,
2013-02-08 19:30:00,41.2,33.5,30.11,NNE,23,0.2,0.9,74,0.00,,,0.00,WUHU216HW,2013-02-09 01:30:00,
2013-02-08 19:35:00,41.2,33.5,30.11,NNE,23,1.1,3.4,74,0.00,,,0.28,WUHU216HW,2013-02-09 01:35:00,
2013-02-08 19:40:00,41.2,33.2,30.12,West,270,1.1,3.4,73,0.00,,,0.00,WUHU216HW,2013-02-09 01:40:00,
2013-02-08 19:45:00,41.2,33.2,30.12,NW,315,2.2,3.1,73,0.00,,,0.28,WUHU216HW,2013-02-09 01:45:00,
2013-02-08 19:50:00,41.4,33.4,30.12,North,0,3.1,3.6,73,0.00,,,0.00,WUHU216HW,2013-02-09 01:50:00,
2013-02-08 19:55:00,41.2,32.9,30.12,SSW,203,2.5,3.6,72,0.00,,,0.00,WUHU216HW,2013-02-09 01:55:00,
2013-02-08 20:00:00,41.0,32.4,30.12,NE,45,0.4,2.5,71,0.00,,,0.00,WUHU216HW,2013-02-09 02:00:00,
2013-02-08 20:05:00,40.9,32.2,30.12,North,0,6.0,6.0,71,0.00,,,0.28,WUHU216HW,2013-02-09 02:05:00,
2013-02-08 20:10:00,40.7,32.3,30.12,SW,225,1.8,6.0,72,0.00,,,0.28,WUHU216HW,2013-02-09 02:10:00,
2013-02-08 20:15:00,40.7,32.3,30.12,West,270,1.6,2.9,72,0.00,,,0.28,WUHU216HW,2013-02-09 02:15:00,
2013-02-08 20:20:00,40.7,32.3,30.12,SSE,158,2.0,2.9,72,0.00,,,0.00,WUHU216HW,2013-02-09 02:20:00,
2013-02-08 20:25:00,40.7,32.3,30.12,NW,315,0.9,2.5,72,0.00,,,0.28,WUHU216HW,2013-02-09 02:25:00,
2013-02-08 20:30:00,40.5,31.9,30.12,North,0,1.1,3.1,71,0.00,,,0.28,WUHU216HW,2013-02-09 02:30:00,
2013-02-08 20:35:00,40.3,32.0,30.12,SSW,203,2.5,3.4,72,0.00,,,0.28,WUHU216HW,2013-02-09 02:35:00,
2013-02-08 20:40:00,40.1,31.8,30.11,SSW,203,1.1,4.0,72,0.00,,,0.28,WUHU216HW,2013-02-09 02:40:00,
2013-02-08 20:45:00,40.0,31.6,30.11,NNW,338,1.1,4.0,72,0.00,,,0.00,WUHU216HW,2013-02-09 02:45:00,
2013-02-08 20:50:00,40.0,31.6,30.10,South,180,0.7,3.4,72,0.00,,,0.28,WUHU216HW,2013-02-09 02:50:00,
2013-02-08 20:55:00,39.8,31.4,30.09,NW,315,0.4,1.8,72,0.00,,,0.28,WUHU216HW,2013-02-09 02:55:00,
2013-02-08 21:00:00,39.4,31.2,30.09,SE,135,0.4,1.8,72,0.00,,,0.28,WUHU216HW,2013-02-09 03:00:00,
2013-02-08 21:05:00,39.6,31.6,30.09,SSW,203,0.4,1.6,73,0.00,,,0.28,WUHU216HW,2013-02-09 03:05:00,
2013-02-08 21:10:00,39.4,31.4,30.09,WSW,248,0.0,1.8,73,0.00,,,0.28,WUHU216HW,2013-02-09 03:10:00,
2013-02-08 21:15:00,39.4,31.4,30.09,SSE,158,0.4,1.8,73,0.00,,,0.28,WUHU216HW,2013-02-09 03:15:00,
2013-02-08 21:20:00,39.4,31.4,30.08,NNW,338,0.4,2.0,73,0.00,,,0.28,WUHU216HW,2013-02-09 03:20:00,
2013-02-08 21:25:00,39.2,31.2,30.08,SE,135,0.2,2.0,73,0.00,,,0.28,WUHU216HW,2013-02-09 03:25:00,
2013-02-08 21:30:00,39.2,31.2,30.08,NW,315,1.1,2.0,73,0.00,,,0.28,WUHU216HW,2013-02-09 03:30:00,
2013-02-08 21:35:00,39.1,31.2,30.08,South,180,0.4,2.0,73,0.00,,,0.00,WUHU216HW,2013-02-09 03:35:00,
2013-02-08 21:40:00,39.1,31.4,30.08,SSW,203,1.8,1.8,74,0.00,,,0.28,WUHU216HW,2013-02-09 03:40:00,
2013-02-08 21:45:00,38.9,31.2,30.08,South,180,1.3,2.2,74,0.00,,,0.28,WUHU216HW,2013-02-09 03:45:00,
2013-02-08 21:50:00,38.7,31.2,30.08,NW,315,2.0,2.2,74,0.00,,,0.28,WUHU216HW,2013-02-09 03:50:00,
2013-02-08 21:55:00,38.7,31.2,30.08,NW,315,2.2,2.2,74,0.00,,,0.00,WUHU216HW,2013-02-09 03:55:00,
2013-02-08 22:00:00,38.5,31.0,30.09,SW,225,1.6,2.2,74,0.00,,,0.28,WUHU216HW,2013-02-09 04:00:00,
2013-02-08 22:05:00,38.5,31.0,30.09,SE,135,1.1,1.6,74,0.00,,,0.00,WUHU216HW,2013-02-09 04:05:00,
2013-02-08 22:10:00,38.5,31.0,30.09,NW,315,0.7,1.6,74,0.00,,,0.00,WUHU216HW,2013-02-09 04:10:00,
2013-02-08 22:15:00,38.3,30.8,30.10,SSW,203,1.8,2.5,74,0.00,,,0.00,WUHU216HW,2013-02-09 04:15:00,
2013-02-08 22:20:00,38.3,30.8,30.10,NNW,338,0.4,2.5,74,0.00,,,0.28,WUHU216HW,2013-02-09 04:20:00,
2013-02-08 22:25:00,38.3,30.8,30.10,SSE,158,1.1,1.8,74,0.00,,,0.00,WUHU216HW,2013-02-09 04:25:00,
2013-02-08 22:30:00,38.2,30.6,30.11,NNW,338,1.6,1.6,74,0.00,,,0.28,WUHU216HW,2013-02-09 04:30:00,
2013-02-08 22:35:00,38.2,31.0,30.11,East,90,0.7,1.6,75,0.00,,,0.28,WUHU216HW,2013-02-09 04:35:00,
2013-02-08 22:40:00,37.8,30.6,30.11,East,90,0.4,0.9,75,0.00,,,0.00,WUHU216HW,2013-02-09 04:40:00,
2013-02-08 22:45:00,37.4,30.2,30.11,East,90,0.2,0.4,75,0.00,,,0.28,WUHU216HW,2013-02-09 04:45:00,
2013-02-08 22:50:00,37.3,30.4,30.11,East,90,0.0,0.4,76,0.00,,,0.00,WUHU216HW,2013-02-09 04:50:00,
2013-02-08 22:55:00,37.1,30.3,30.12,East,90,0.4,1.1,76,0.00,,,0.28,WUHU216HW,2013-02-09 04:55:00,
2013-02-08 23:00:00,36.9,30.1,30.13,East,90,0.4,1.1,76,0.00,,,0.00,WUHU216HW,2013-02-09 05:00:00,
2013-02-08 23:05:00,36.5,30.0,30.13,East,90,0.0,0.4,77,0.00,,,0.28,WUHU216HW,2013-02-09 05:05:00,
2013-02-08 23:10:00,36.4,29.5,30.14,East,90,1.1,1.1,76,0.00,,,0.00,WUHU216HW,2013-02-09 05:10:00,
2013-02-08 23:15:00,36.2,29.4,30.14,East,90,0.0,1.1,76,0.00,,,0.28,WUHU216HW,2013-02-09 05:15:00,
2013-02-08 23:20:00,36.4,29.8,30.13,NNE,23,1.1,1.3,77,0.00,,,0.00,WUHU216HW,2013-02-09 05:20:00,
2013-02-08 23:25:00,36.4,29.8,30.13,SW,225,0.0,1.3,77,0.00,,,0.00,WUHU216HW,2013-02-09 05:25:00,
2013-02-08 23:30:00,36.5,30.0,30.12,SSW,203,0.4,1.3,77,0.00,,,0.28,WUHU216HW,2013-02-09 05:30:00,
2013-02-08 23:35:00,36.9,30.1,30.12,NNW,338,0.0,1.1,76,0.00,,,0.28,WUHU216HW,2013-02-09 05:35:00,
2013-02-08 23:40:00,36.9,30.1,30.11,North,0,0.0,1.1,76,0.00,,,0.00,WUHU216HW,2013-02-09 05:40:00,
2013-02-08 23:45:00,36.9,30.1,30.11,NE,45,0.4,0.9,76,0.00,,,0.00,WUHU216HW,2013-02-09 05:45:00,
2013-02-08 23:50:00,36.7,29.9,30.11,NE,45,0.7,0.7,76,0.00,,,0.00,WUHU216HW,2013-02-09 05:50:00,
2013-02-08 23:55:00,36.7,29.9,30.11,ESE,113,0.0,1.1,76,0.00,,,0.28,WUHU216HW,2013-02-09 05:55:00,